Погода в Перми

Погода в Перми : погода сейчас, прогноз погоды и архив. Всё, что Вы хотите узнать о погоде в Перми!

Хотите узнать прогноз погоды в Перми? Тогда Вам сюда: Погода в Перми

Поиск расширенной информации на нашем сайте:

Другие новости

Новости СМИ2

Главная страница сайта

Новости сайта

02.10.2013

Напоминаем, что на нашем новом сайте вы можете получить высокодетализированные прогнозы погоды по пунктам России, СНГ и мира (включающие важные для авиации метеовеличины, такие как направление и скорость ветра, видимость, явления погоды, количество и форма облачности, нижняя и верхняя граница облачности), а также ознакомиться с разнообразными материалами по авиационной метеорологии и подборкой полезных ссылок на эту тему.

Сайт Метеоцентр.Азия посвящён разработке технологий оптимизации авиаметеорологического обслуживания, включая проектирование и перспективное создание нескольких автоматизированных авиаметеорологических систем:
- система выпуска высокодетальных прогностических карт явлений погоды для нижнего воздушного пространства по России и ближнему зарубежью;
- система верификации прогнозов TAF (выпускаемых синоптиками официальных АМСГ РФ и ближнего зарубежья) и AUTOTAF (выпускаемых сайтом Метеоцентр.Азия) - выявление ошибок, онлайн-сопоставление с фактической погодой METAR, автоматическое внесение коррективов в прогнозы при резком отклонении фактической погоды от прогноза, подсчёт оправдываемости прогнозов по элементам и в целом;
- система обработки, анализа и отображения авиаметеорологической информации для применения провайдерами метеорологической информации.

Рекомендуем: Свежая информация - передние амортизаторы Daewoo Lanos - актуальная информация!

Погода в Перми - сегодня

Время (UTC), дата Ветер
(°,м/с) 
Видим.   Явления Облачность Т
(°С)
Тd
(°С)
f(%) Тe
(°С)
Pmin
(гПа)
dP
(гПа)
Po
(мм)
O2
(г/м3)
Тmin Tmax R s Состояние
почвы
15 25.05.17 230 (ЮЗ) 20000 м    ясно 
+14.4 -5.9 24 +16  1017.3  -0.8  748  287    +14.7       
18 25.05.17 150 (ЮВ) 20000 м    1/0 верхняя 
[Ci fib]
+7.5 -2.9 48 +7  1017.5  -0.3  747  293           
21 25.05.17 140 (ЮВ) 20000 м    8/5 2000 м средняя, верхняя 
[Ac und|Ci fib]
+8.6 -4.9 38 +8  1016.8  -0.6  747  292           
00 26.05.17 150 (ЮВ) 20000 м  слаб. дождь  10/8 600 м средняя 
[Sc|As op]
+9.9 -3.5 39 +9  1014.9  -1.8  746  290           
03 26.05.17 160 (Ю) 20000 м  {дождь}  10/8 600 м средняя 
[Sc|As trans]
+12 +4.8 61 +11  1012.2  -2.4  744  286  +7.4    0.1    сухая 
06 26.05.17 170 (Ю) 4{10}  20000 м  {дождь}  10/4 600 м средняя, верхняя 
[Sc|Ac lent|Cs]
+18.9 +9.6 55 +20  1010.3  -1.4  743  278           
09 26.05.17 200 (Ю) 7-15{15}  20000 м  гроза, ливневой дождь  9/8 1000 м кучево-дожд., средняя, верхняя 
[Cb calv|Ac lent|Cs]
+22.1 +9.3 44 +23  1009.2  -0.9  742  275           
12 26.05.17 210 (ЮЗ) 7-13{17}  20000 м  {гроза, ливн. осадки}  10/8 1000 м кучево-дожд., средняя, верхняя 
[Cb cap|Ac lent|Cs]
+22.4 +7.4 38 +22  1008.1  -1.1  741  275           
18 26.05.17 210 (ЮЗ) 20000 м  {гроза, ливн. осадки}  10/6 1000 м кучево-дожд., средняя 
[Cb cap|Ac trans]
+17.2 +8.6 57 +18  1008.4  -0.1  741  279           
21 26.05.17 190 (Ю) 20000 м    9/8 1000 м средняя 
[Sc|Ac trans]
+14.3 +8.8 69 +14  1007.7  -0.9  741  282           
00 27.05.17 170 (Ю) 20000 м    5/4 2000 м средняя, верхняя 
[Ac trans|Ci fib]
+10.7 +7.9 83 +11  1006.9  -1.1  740  285           
03 27.05.17 180 (Ю) 20000 м    10/0 верхняя 
[Cs]
+16.9 +9.4 61 +18  1005.4  -1.2  739  279  +10.6        сухая 
06 27.05.17 210 (ЮЗ) 20000 м    8/3 600 м средняя, верхняя 
[Sc diur, vesp|Ac lent|Cs]
+21.4 +8.3 43 +21  1003.8  -1.3  738  274           
12 27.05.17 250 (З) 4{14}  20000 м    9/3 600 м кучево-дожд., средняя, верхняя 
[Cb calv|Ac cuf|Cs]
+22.5 +6.4 35 +23  1000.1  -1.3  735  273           
18 27.05.17 360 (С) 20000 м  {гроза, ливн. осадки}  10/10 600 м 
[Sc]
+11.9 +10 88 +14  1000.7  -1.1  735  282           
03 28.05.17 330 (СЗ) 4{11}  4000 м  слаб. дождь со снегом  10/10 300 м 
[Frnb|Ns]
+1.5 +0.1 90 -1  1004.4  1.1  738  295  +1.4    10    мокрая 
12 28.05.17 320 (СЗ) 20000 м  {ливн. осадки, снег}  10/10 600 м кучево-дожд. 
[Cb cap]
+2.9 -3.1 65 +2  1009.4  0.8  741  296           
18 28.05.17 330 (СЗ) 20000 м    10/10 600 м 
[Sc]
+3.8 -5 53 +3  1010.3  0.8  742  295           
21 28.05.17 330 (СЗ) 20000 м    10/10 2000 м 
[Ac und]
+2.6 -5.8 54 +3  1011.2  0.8  743  297           
00 29.05.17 190 (Ю) 20000 м    4/4 2000 м средняя 
[Ac trans]
-2.2 -4.4 85 -2  1012.1  0.5  743  302           
03 29.05.17 330 (СЗ) 20000 м    8/8 2000 м средняя 
[Ac trans]
+3 -4.2 59 +4  1011.6  0.1  743  297  -2.3        влажная 
06 29.05.17 350 (С) 20000 м  слаб. ливневой снег  10/10 600 м кучево-дожд. 
[Cb calv]
+4.5 -5.9 47 +4  1011.9  0.4  743  295           
09 29.05.17 290 (З) 20000 м  {ливн. осадки}  9/6 1000 м средняя 
[Sc|Ac lent]
+5.8 -8.6 35 +5  1011.4  -0.4  743  294           
12 29.05.17 190 (Ю) 20000 м  {ливн. осадки}  8/8 600 м 
[Sc diur, vesp]
+7.2 -9.1 30 +8  1010.5  -0.8  742  292           
18 29.05.17 140 (ЮВ) 20000 м    8/8 2000 м средняя 
[Ac cast]
+2.7 -4.4 59 +2  1009.9  -0.4  742  296           
Время (UTC), дата Ветер
(°,м/с) 
Видим.   Явления Облачность Т
(°С)
Тd
(°С)
f(%) Тe
(°С)
Pmin
(гПа)
dP
(гПа)
Po
(мм)
O2
(г/м3)
Тmin Tmax R s Состояние
почвы

Для получения пояснительной информации подведите курсор к названию столбца.

ПОГОДА в Перми - архив

Всё, что Вы хотите узнать о погоде в Перми - удобно и подробно!

Выберите нужную дату (начиная с 1 января 2015* года) и нажмите кнопку "Найти".
Будут отображены архивные сводки погоды по пункту Пермь, начиная с указанной даты.


Отображать данные в формате CSV (для использования в таблицах Excel)


Внимание! Наш архив погоды предназначен исключительно для личного некоммерческого использования в познавательных целях. Если Вам необходимы официальные справки о состоянии погоды (для производственных, юридических, коммерческих и т.п. целей), обращайтесь в органы Росгидромета.

*Примечание: данная дата относится к архиву по метеостанциям СССР (Россия, СНГ, Балтия).
Архив по метеостанциям Зарубежной Европы и Азии (кроме Китая) хранится 10 дней, по другим регионам земного шара (Китай, Африка, Америка, Австралия, Океания) - 1 день.

Пермь - район местоположения метеостанции


Название, широта, долгота, высота метеостанции:
Пермь (город) 58°ш. 56.3°д. 171 м над ур. моря [Российская Федерация]

Дополнительная информация

В oтличие oт бoльшинства пoгoдных сайтoв мы публикуем пoдрoбную метеoинфoрмацию в детальнoм прoфессиoнальнoм фoрмате.

Характеристики температуры и влажнoсти вoздуха измеряются на высoте 2 м в тени вдали oт зданий и деревьев.
Скoрoсть ветра измеряется на высoте 10 м (на урoвне рoста челoвека скoрoсть ветра ниже в 1.5-2 раза). Если метеoстанция нахoдится в гoрoде или в лесу, тo скoрoсть ветра занижена на 2-4 м/с пo сравнению с oткрытым местoм. Скoрoсть ветра над акватoриями крупных рек и oзёр, а также на вершинах хoлмoв на 2-5 м/с выше, чем в oбычных услoвиях.
Атмoсфернoе давление в разных тoчках местнoсти мoжет значительнo oтличаться oт давления на метеoстанции, в зависимoсти oт услoвий рельефа (при пoдъёме на 10 м давление пoнижается примернo на 1 мм рт.ст.).